Wetbulb
53.59 54.03 53.92 54.22 53.75 53.29 53.24 53.85 53.97 53.86 55.33 55.98 56.61 57.07 56.77 55.91 56.86 58.05 57.81 58.42 57.71 57.24 57.12 56.76 55.69 54.58 51.19 49.53 50.36 53.94 51.16 50.84 47.17 50.22 51.83 53.47 54.53 54.23 55.25 53.67 55.53 53.95 54.00
55.09 53.95 54.28 54.47 52.62 51.79 52.31 52.75 53.85 54.09 54.81 55.10 55.62 56.34 56.77 56.47 56.26 56.22 55.46 55.35 55.36 54.88 54.62 54.91 54.19 56.19 53.21 53.67 53.35 53.12 53.32 52.58 50.54 51.35 52.17 50.23 49.94 49.16 48.09 47.49 49.29 53.00 50.59
55.40 54.25 54.06 53.14 51.51 51.10 51.37 52.15 52.60 52.77 53.65 54.01 54.92 55.29 55.61 55.55 54.68 53.28 52.89 51.79 50.73 50.67 51.13 51.45 51.45 51.83 50.53 50.07 49.96 51.07 50.03 53.20 54.22 52.56 46.68 44.72 44.54 44.50 45.01 45.70 45.40 47.01 51.72
55.57 54.83 53.41 51.46 50.58 49.78 51.20 52.39 51.94 51.73 51.28 51.53 52.68 54.08 54.83 54.85 53.84 52.34 50.44 47.59 46.19 45.39 45.89 46.37 48.14 50.12 49.69 49.06 49.61 49.62 49.01 51.63 48.27 46.81 43.85 42.52 42.31 42.70 43.29 42.64 41.70 42.21 42.56
56.09 54.89 53.61 52.82 51.14 50.36 51.49 51.68 51.16 50.68 51.08 50.25 49.54 49.78 51.70 53.38 53.17 49.65 47.07 44.14 42.12 41.27 41.89 43.44 45.42 49.26 51.47 50.01 48.12 46.04 48.21 46.95 44.15 42.69 41.27 39.73 38.99 39.52 39.71 40.98 38.95 38.90 41.04
56.40 55.52 55.57 54.23 52.24 50.25 50.95 50.90 50.72 50.16 48.81 48.51 47.78 48.13 48.28 51.23 46.87 47.72 45.81 42.36 41.06 39.70 38.98 39.25 41.51 46.23 46.99 47.63 47.85 47.69 47.00 45.59 42.28 41.51 38.81 38.06 37.61 38.29 39.18 39.41 37.48 36.40 36.47
56.87 57.59 56.95 55.04 52.10 50.51 50.82 50.56 48.87 47.27 46.94 46.52 45.71 45.99 46.25 48.14 45.56 45.77 46.04 42.38 39.75 38.34 37.68 37.40 39.45 42.75 43.76 43.04 44.43 45.77 46.36 46.32 45.56 42.58 39.66 37.40 36.56 37.59 39.44 37.31 36.97 36.69 35.99
57.09 58.04 57.75 55.62 53.12 51.57 50.57 49.91 48.88 46.25 45.58 45.00 45.17 45.12 44.73 45.83 45.08 44.74 45.76 43.28 41.41 41.05 41.02 40.67 38.39 38.46 39.76 41.52 39.65 39.52 39.56 40.40 41.23 42.22 40.27 38.61 36.47 38.36 39.77 38.66 37.91 37.79 38.02
57.20 57.60 58.28 56.88 54.46 52.14 50.82 50.07 50.21 48.07 46.51 45.31 45.49 44.74 44.36 43.90 43.51 44.68 46.97 47.00 46.37 45.81 46.10 45.43 41.65 40.48 40.37 39.85 38.54 36.94 35.67 36.64 40.78 41.05 39.34 38.77 38.23 38.69 39.38 37.60 35.71 34.66 33.07
57.43 58.17 58.98 57.99 56.24 53.49 51.78 50.81 51.13 50.33 49.04 48.08 45.87 45.08 44.54 44.31 41.54 43.24 45.80 46.45 44.63 44.49 44.40 45.07 44.66 43.47 39.93 39.05 36.29 34.57 34.13 34.18 34.81 34.30 34.58 35.81 36.46 37.09 41.24 37.57 36.54 34.60 33.17
58.62 59.04 59.05 58.54 57.45 55.88 54.02 52.48 52.24 51.78 51.19 49.40 47.08 45.50 43.75 42.60 43.47 41.35 43.05 46.09 46.50 43.85 43.43 41.89 40.99 41.25 38.92 38.20 36.73 33.51 33.70 33.37 35.78 33.32 33.30 33.64 34.55 35.15 36.64 37.63 37.63 37.62 35.34
59.02 58.94 58.96 58.76 59.21 57.94 55.92 54.99 52.95 52.54 51.20 50.28 49.07 47.86 48.15 45.10 42.12 41.16 40.59 43.15 43.97 44.93 44.04 42.08 40.20 38.81 38.33 37.28 38.32 37.07 37.67 36.81 33.94 33.76 34.42 34.65 35.23 36.22 37.30 40.72 40.24 38.45 39.41
57.86 58.08 58.61 58.93 59.18 58.68 57.01 55.76 54.36 53.19 52.71 51.62 51.00 50.46 50.73 51.35 47.97 42.22 40.14 39.93 41.01 43.42 42.51 41.73 39.86 38.13 38.26 36.50 36.97 37.21 38.41 36.74 34.35 34.64 35.79 36.59 38.09 38.81 41.37 41.63 40.78 40.46 39.83
57.19 55.55 57.08 57.60 58.43 58.65 58.94 58.08 56.80 55.17 53.66 52.84 52.26 52.08 52.27 51.28 51.48 49.29 46.07 40.43 40.65 42.32 41.68 39.87 39.98 38.56 37.35 37.45 35.47 37.03 37.03 38.08 37.99 35.73 35.66 36.87 37.08 37.36 38.73 40.78 39.95 39.36 37.67
56.46 56.46 54.17 56.79 56.92 58.43 59.09 58.95 58.29 58.08 56.35 55.77 54.93 54.50 52.96 52.02 53.05 50.70 49.31 45.78 42.82 41.84 38.61 35.05 34.01 33.07 33.55 34.23 33.47 34.11 34.16 34.52 35.63 35.47 35.73 36.05 36.96 37.11 36.10 39.17 39.45 36.89 35.21
55.46 55.65 55.70 54.84 55.71 58.01 58.48 58.55 50.10 49.94 48.17 46.57 47.80 53.70 55.98 50.20 45.45 44.08 44.37 44.32 41.76 39.04 38.30 35.86 36.17 36.30 36.16 35.43 34.56 34.37 32.91 35.49 35.93 36.14 35.31 36.73 35.92 37.21 39.13 39.91 37.75 35.68 33.75
56.09 56.02 56.15 54.15 56.78 56.91 58.02 58.05 57.28 56.35 45.89 45.68 44.10 43.00 43.55 44.71 41.97 43.33 44.47 43.25 43.86 40.32 43.88 43.68 41.73 37.92 38.16 37.39 35.54 34.14 34.18 35.68 37.12 36.80 38.57 37.32 38.76 40.87 38.80 38.95 37.34 36.22 34.43
57.46 50.44 57.38 57.60 57.75 58.03 58.42 58.82 59.03 58.04 57.65 58.85 42.71 42.74 41.54 40.42 40.90 44.21 44.34 44.18 42.53 42.88 44.44 45.54 41.35 42.41 38.78 34.16 33.21 33.55 34.12 33.54 34.23 36.00 37.41 40.88 40.53 39.94 38.94 37.56 36.64 35.29 34.01
57.55 57.19 57.30 57.78 58.06 58.33 59.28 59.76 59.82 58.89 57.58 55.18 44.85 41.10 40.84 42.60 43.77 40.73 41.15 48.46 47.43 45.68 45.76 45.86 43.42 38.70 35.22 34.61 34.18 34.32 34.86 35.31 35.52 36.77 39.68 40.56 40.31 39.89 38.98 38.64 38.17 34.56 33.13
58.82 52.22 53.44 56.57 54.15 53.79 54.29 55.17 54.80 54.80 54.59 55.75 51.90 49.87 46.20 46.63 47.68 46.05 46.04 49.18 49.32 47.97 44.61 42.70 37.74 36.92 35.73 34.99 35.07 35.99 36.43 34.30 36.29 38.98 40.01 40.65 40.37 39.60 38.57 38.14 36.86 34.70 32.69
55.57 53.61 47.12 56.50 55.85 55.55 56.13 55.77 54.92 53.38 53.48 53.80 51.38 47.17 41.10 49.20 48.32 48.36 46.24 44.17 41.56 38.96 38.19 37.58 37.04 36.77 36.64 36.31 35.22 35.02 35.35 38.36 38.95 39.74 40.06 40.06 39.84 38.76 39.21 39.07 36.11 33.54 33.12
56.70 56.12 56.52 55.80 55.35 54.44 53.76 53.20 51.72 50.97 50.40 47.58 45.37 42.86 35.54 45.15 43.36 41.87 40.22 39.61 39.47 39.42 38.93 37.77 37.00 37.06 36.76 36.77 36.90 37.36 39.30 39.32 39.30 39.81 39.83 39.51 39.26 39.12 39.26 38.82 36.17 33.36 33.44
57.65 56.55 55.62 55.19 54.82 50.26 53.91 53.40 51.63 50.78 49.51 47.33 46.36 45.16 45.15 43.22 42.03 41.56 41.20 40.65 39.55 38.58 38.35 38.31 37.00 36.48 36.42 38.73 40.57 40.34 39.77 39.87 40.32 40.27 39.43 39.15 38.73 38.74 38.56 35.81 34.81 32.98 32.71
57.36 56.61 55.93 55.51 55.34 53.73 52.08 50.00 48.43 44.48 46.35 45.27 44.37 43.24 42.56 41.49 40.91 41.02 41.41 41.90 42.57 40.66 38.70 38.00 37.63 38.04 38.25 38.49 40.64 41.14 40.92 40.71 40.49 40.62 40.09 38.89 38.28 36.74 37.30 37.09 37.04 34.77 33.16
55.27 54.57 53.70 52.42 51.43 50.47 49.86 48.93 47.70 47.39 46.56 45.89 43.81 43.98 44.96 42.05 41.17 41.04 40.08 38.61 38.32 37.84 37.15 37.41 37.77 38.64 38.43 38.40 38.99 38.54 35.43 33.47 37.61 36.00 37.85 37.30 37.29 37.34 36.69 35.41 35.56 32.40 31.97
53.12 51.89 50.36 48.92 48.13 47.31 46.21 45.58 44.99 44.43 43.60 43.05 42.96 42.28 41.11 40.15 39.15 38.92 38.55 38.41 37.61 37.35 37.20 37.02 37.19 38.09 37.64 37.06 36.66 33.27 31.56 31.31 31.64 33.86 36.10 36.27 36.73 36.68 36.06 34.37 34.53 32.80 33.20
MSLP
1016.14 1016.22 1016.33 1016.45 1016.54 1016.64 1016.81 1016.91 1016.82 1016.84 1016.81 1016.91 1017.13 1017.23 1017.41 1017.60 1017.65 1018.00 1018.37 1018.52 1018.98 1019.36 1019.58 1019.91 1020.45 1020.58 1021.05 1021.43 1021.73 1022.12 1022.45 1022.87 1023.90 1024.57 1024.37 1024.33 1024.47 1024.55 1024.69 1024.64 1024.71 1025.11 1025.44
1016.07 1016.25 1016.46 1016.60 1016.72 1016.87 1017.00 1017.10 1017.16 1017.29 1017.43 1017.58 1017.67 1017.85 1018.13 1018.34 1018.50 1018.74 1019.25 1019.63 1019.89 1020.17 1020.35 1020.46 1020.87 1020.93 1021.46 1021.68 1021.80 1022.08 1022.42 1022.71 1023.40 1024.50 1024.86 1025.03 1025.06 1025.11 1025.19 1025.17 1025.46 1025.54 1025.68
1016.10 1016.41 1016.68 1016.87 1017.02 1017.19 1017.24 1017.31 1017.49 1017.75 1018.01 1018.10 1018.14 1018.53 1018.95 1019.18 1019.41 1019.73 1019.91 1020.28 1020.58 1020.99 1021.21 1021.25 1021.59 1021.39 1022.03 1022.19 1022.32 1022.21 1022.48 1022.74 1023.14 1024.17 1025.33 1025.64 1025.93 1025.83 1025.73 1025.99 1026.07 1025.96 1025.83
1016.09 1016.48 1016.94 1017.11 1017.18 1017.39 1017.53 1017.64 1017.84 1018.02 1018.34 1018.68 1018.91 1019.23 1019.43 1019.66 1020.03 1020.37 1020.60 1020.96 1021.30 1021.64 1021.74 1021.82 1021.88 1021.95 1022.11 1022.31 1022.28 1022.46 1022.72 1023.32 1023.75 1024.48 1025.43 1026.07 1026.09 1026.24 1026.13 1026.60 1026.84 1026.75 1026.49
1016.00 1016.46 1016.85 1016.96 1017.20 1017.47 1017.74 1017.92 1018.18 1018.45 1018.75 1019.06 1019.45 1019.76 1019.90 1020.02 1020.42 1020.72 1021.05 1021.45 1021.71 1022.11 1022.29 1022.25 1022.24 1022.10 1022.01 1021.97 1022.21 1022.78 1023.08 1023.86 1024.32 1024.69 1025.48 1025.99 1026.29 1026.40 1026.70 1027.03 1027.35 1027.30 1027.17
1015.71 1016.20 1016.62 1016.98 1017.34 1017.63 1017.87 1018.18 1018.49 1018.83 1019.11 1019.29 1019.65 1019.94 1020.32 1020.55 1020.70 1020.81 1021.10 1021.61 1021.98 1022.14 1022.41 1022.48 1022.49 1022.36 1022.46 1022.48 1022.58 1022.77 1022.86 1023.35 1024.19 1024.83 1025.64 1026.15 1026.38 1026.58 1026.78 1027.02 1027.23 1027.60 1027.71
1015.42 1015.92 1016.46 1016.98 1017.45 1017.86 1018.16 1018.61 1019.09 1019.47 1019.71 1020.09 1020.39 1020.53 1020.87 1021.09 1021.32 1021.32 1021.53 1021.98 1022.31 1022.57 1022.73 1022.87 1023.02 1023.10 1023.15 1023.20 1023.20 1023.14 1023.14 1023.14 1023.18 1023.82 1024.83 1025.49 1026.03 1026.08 1026.28 1026.88 1027.09 1027.23 1027.32
1015.07 1015.61 1016.13 1016.74 1017.39 1017.91 1018.39 1018.90 1019.38 1019.76 1020.15 1020.55 1020.82 1020.98 1021.16 1021.45 1021.55 1021.63 1021.81 1022.29 1022.63 1022.87 1023.03 1023.11 1023.16 1023.36 1023.55 1023.67 1023.78 1023.89 1023.97 1023.93 1023.85 1023.76 1024.10 1024.53 1024.83 1025.36 1025.63 1025.96 1026.59 1026.96 1027.23
1014.52 1015.05 1015.67 1016.25 1017.00 1017.77 1018.44 1019.00 1019.28 1019.76 1020.25 1020.52 1020.77 1021.12 1021.30 1021.55 1021.64 1021.76 1022.22 1022.63 1022.95 1023.07 1023.10 1023.11 1023.34 1023.53 1023.60 1023.98 1024.21 1024.57 1024.83 1024.96 1024.86 1024.84 1024.87 1025.05 1025.37 1025.60 1025.71 1026.17 1026.84 1027.21 1027.57
1013.72 1014.28 1014.93 1015.72 1016.42 1017.11 1017.71 1018.43 1018.83 1019.33 1019.82 1020.28 1020.75 1020.93 1021.09 1021.33 1021.46 1021.60 1021.97 1022.40 1022.90 1022.95 1022.99 1023.07 1023.11 1023.31 1023.77 1024.28 1024.57 1025.01 1025.34 1025.48 1025.40 1025.50 1025.76 1025.91 1026.07 1026.15 1026.16 1026.08 1026.62 1027.25 1027.51
1012.69 1013.39 1014.14 1014.89 1015.57 1016.15 1017.01 1017.79 1018.31 1019.03 1019.69 1020.20 1020.49 1020.62 1020.76 1020.84 1021.07 1021.44 1021.46 1021.96 1022.18 1022.72 1022.86 1022.96 1023.11 1023.33 1023.62 1024.09 1024.30 1024.79 1025.08 1025.25 1025.51 1025.78 1025.99 1026.12 1026.19 1026.21 1026.28 1026.29 1026.25 1026.51 1027.08
1011.85 1012.63 1013.32 1014.03 1014.74 1015.64 1016.29 1017.04 1017.83 1018.53 1019.21 1019.68 1020.10 1020.44 1020.41 1020.47 1020.70 1021.02 1021.44 1021.65 1021.87 1022.21 1022.36 1022.55 1022.90 1023.24 1023.60 1023.93 1024.21 1024.40 1024.75 1025.02 1025.48 1025.93 1026.12 1026.18 1026.12 1026.03 1025.94 1025.95 1026.20 1026.45 1026.24
1011.08 1011.81 1012.53 1013.21 1013.95 1014.68 1015.71 1016.52 1017.27 1017.73 1018.27 1018.82 1019.37 1019.66 1019.60 1019.63 1019.93 1020.29 1020.76 1021.20 1021.63 1021.84 1021.75 1021.83 1022.15 1022.60 1023.11 1023.70 1023.83 1023.99 1024.28 1024.73 1025.08 1025.56 1025.57 1025.55 1025.23 1025.08 1025.28 1025.67 1025.72 1026.10 1026.38
1010.10 1011.04 1011.74 1012.49 1013.25 1013.96 1014.65 1015.34 1015.94 1016.67 1017.26 1017.66 1018.10 1018.22 1018.07 1018.41 1018.69 1019.04 1019.49 1020.10 1020.71 1021.04 1021.10 1021.33 1021.69 1022.08 1022.25 1022.27 1022.81 1023.06 1023.25 1023.51 1023.89 1024.16 1024.35 1024.21 1024.47 1024.75 1024.88 1024.95 1025.39 1025.75 1026.35
1009.03 1009.91 1011.04 1011.70 1012.40 1013.09 1013.58 1014.07 1014.80 1014.95 1014.98 1015.55 1015.94 1016.12 1016.71 1017.08 1016.67 1016.69 1017.54 1018.50 1018.94 1019.36 1020.60 1021.18 1021.62 1022.19 1022.74 1022.99 1022.89 1022.77 1022.86 1023.08 1023.36 1023.39 1023.81 1024.12 1024.07 1024.11 1024.22 1024.16 1024.69 1025.18 1025.71
1008.25 1009.11 1009.86 1010.95 1011.69 1012.19 1012.70 1013.16 1013.29 1013.25 1013.62 1013.85 1013.65 1014.42 1014.89 1014.74 1015.07 1015.63 1016.22 1016.77 1017.67 1018.83 1020.01 1020.32 1020.85 1021.21 1021.60 1021.71 1021.99 1022.24 1022.39 1022.50 1022.36 1022.51 1022.76 1023.03 1023.34 1023.54 1023.72 1023.81 1023.95 1024.45 1024.89
1007.28 1008.22 1009.06 1009.76 1010.61 1011.24 1011.87 1012.42 1012.84 1012.91 1013.31 1013.69 1014.00 1014.47 1014.50 1014.69 1015.56 1015.80 1016.23 1017.44 1018.38 1019.06 1019.29 1019.58 1020.26 1020.69 1020.83 1021.11 1021.13 1021.29 1021.33 1021.19 1021.37 1021.63 1021.74 1022.03 1022.55 1022.88 1023.37 1023.50 1023.61 1023.84 1024.41
1006.45 1007.18 1008.12 1008.80 1009.56 1010.41 1010.91 1011.34 1011.77 1012.18 1012.64 1012.94 1013.97 1014.39 1014.85 1015.13 1015.87 1016.35 1017.27 1018.23 1019.31 1019.43 1018.54 1017.85 1018.39 1019.26 1019.75 1020.00 1020.26 1020.26 1020.29 1020.49 1020.82 1020.98 1021.24 1021.37 1021.86 1022.25 1022.78 1022.96 1023.33 1023.63 1023.68
1005.91 1006.62 1007.39 1008.22 1008.87 1009.44 1009.92 1010.39 1010.86 1011.29 1012.06 1012.98 1014.04 1014.43 1014.78 1015.17 1015.18 1015.18 1015.76 1015.99 1017.96 1018.38 1018.57 1017.81 1017.69 1018.31 1018.96 1019.24 1019.35 1019.65 1019.81 1019.95 1020.11 1020.35 1020.55 1020.84 1021.12 1021.26 1021.54 1021.75 1022.56 1023.34 1022.96
1005.14 1005.79 1006.78 1007.65 1008.48 1009.06 1009.54 1010.01 1010.64 1011.01 1011.54 1012.23 1013.10 1013.82 1014.47 1014.81 1015.63 1016.17 1016.72 1016.20 1016.79 1016.90 1017.21 1017.38 1017.82 1018.08 1018.24 1018.38 1018.62 1018.84 1019.07 1019.42 1019.50 1019.52 1019.64 1019.82 1020.25 1020.70 1020.93 1021.32 1022.22 1022.60 1022.32
1004.83 1005.75 1006.63 1007.80 1008.71 1009.58 1010.04 1011.04 1011.43 1011.79 1012.58 1012.98 1013.41 1013.79 1014.07 1013.75 1014.30 1015.92 1016.51 1016.47 1016.63 1017.10 1017.35 1017.50 1017.66 1017.67 1017.89 1018.04 1018.09 1018.28 1018.53 1018.66 1018.71 1018.79 1019.04 1019.43 1019.86 1020.38 1020.69 1021.06 1021.87 1022.16 1022.06
1005.03 1005.98 1006.84 1007.91 1008.99 1009.85 1010.49 1011.40 1011.62 1012.26 1013.30 1013.61 1014.32 1015.11 1014.76 1014.50 1014.74 1015.58 1015.97 1016.53 1016.78 1017.05 1017.05 1017.14 1017.20 1017.16 1017.27 1017.38 1017.61 1017.76 1017.72 1017.94 1017.99 1018.18 1018.58 1018.88 1019.34 1019.81 1020.29 1020.76 1021.31 1021.81 1022.15
1006.20 1006.73 1007.51 1008.32 1009.15 1010.16 1011.37 1011.70 1012.01 1011.78 1012.77 1013.69 1015.86 1015.75 1014.98 1015.34 1015.79 1016.03 1016.41 1016.64 1016.79 1016.82 1017.05 1017.12 1016.97 1017.00 1017.01 1016.96 1017.16 1017.36 1017.41 1017.46 1017.50 1017.77 1018.08 1018.47 1018.93 1019.27 1019.68 1020.27 1020.76 1021.39 1021.59
1008.39 1007.82 1008.86 1009.07 1009.34 1009.18 1010.16 1012.06 1012.22 1011.98 1013.96 1015.72 1016.47 1015.63 1015.30 1015.94 1016.54 1016.89 1017.10 1017.34 1017.43 1017.19 1017.18 1017.19 1017.34 1017.47 1017.32 1017.28 1017.38 1017.31 1017.23 1017.38 1017.54 1017.61 1017.78 1018.22 1018.60 1018.88 1019.14 1019.66 1020.24 1020.70 1020.95
1008.09 1009.48 1009.94 1010.00 1009.32 1009.93 1011.36 1012.42 1013.41 1014.55 1015.38 1015.94 1016.09 1016.12 1016.69 1016.84 1017.38 1017.68 1017.64 1017.71 1017.64 1017.61 1017.54 1017.46 1017.43 1017.44 1017.44 1017.43 1017.51 1017.57 1017.69 1017.73 1017.79 1017.96 1018.12 1018.44 1018.84 1019.11 1019.42 1019.75 1019.77 1020.25 1020.36
1008.85 1009.67 1010.73 1010.86 1010.67 1011.19 1011.64 1013.00 1014.48 1015.29 1015.73 1016.21 1016.48 1016.81 1017.12 1017.54 1017.97 1018.09 1018.03 1018.06 1018.24 1018.36 1018.30 1018.23 1018.12 1018.06 1018.06 1017.98 1017.96 1018.01 1018.06 1018.13 1018.25 1018.29 1018.58 1018.84 1019.19 1019.37 1019.54 1019.77 1019.77 1019.86 1019.91
Wind_Speed
6 5 6 5 6 6 6 4 4 5 7 7 7 7 7 8 8 11 10 11 11 9 7 8 7 6 5 4 4 2 3 3 5 1 1 1 3 3 5 4 5 6 6
6 6 6 6 5 6 5 5 4 5 5 6 6 7 7 7 8 10 10 8 10 9 7 10 7 7 7 5 4 4 4 3 5 4 3 4 6 4 4 7 4 4 5
7 7 6 5 5 5 5 5 5 6 6 6 8 8 7 7 9 7 8 8 8 7 6 8 6 7 6 3 3 5 4 3 3 6 3 3 3 3 6 4 4 4 3
8 8 7 7 6 4 4 6 7 6 7 7 7 6 6 7 7 7 8 7 7 6 6 6 6 6 7 5 5 5 5 6 5 7 4 2 2 2 4 3 3 3 2
9 8 8 7 6 5 5 6 7 7 6 7 8 6 6 7 5 8 7 7 8 7 6 5 5 6 7 4 4 4 6 5 4 4 3 2 1 2 2 1 2 1 1
10 9 7 7 7 6 6 7 7 7 7 7 7 7 6 4 8 10 8 7 6 7 7 5 5 8 9 9 8 5 3 10 4 5 3 3 3 3 2 3 3 2 2
10 9 9 7 7 6 6 7 7 7 6 7 6 7 6 5 7 10 11 6 6 6 6 5 4 3 5 6 7 9 8 7 4 7 7 6 5 7 6 3 3 3 3
11 11 10 10 8 7 7 7 6 5 6 5 5 6 6 4 9 11 9 7 5 5 5 6 5 6 4 6 5 5 4 2 2 3 6 7 5 7 6 6 6 3 2
13 12 12 11 10 8 8 8 6 6 5 5 5 7 7 5 9 12 10 6 5 7 6 7 7 7 8 7 6 5 2 3 6 8 6 6 7 7 6 5 2 3 0
14 14 13 12 12 11 9 9 5 5 6 5 6 7 8 8 10 13 10 5 7 5 5 7 11 8 8 9 7 6 6 4 3 3 3 4 4 3 4 2 5 3 1
16 15 14 13 14 13 11 6 7 6 6 6 7 6 7 8 9 14 14 7 7 5 5 5 5 10 11 11 8 6 6 6 5 4 3 1 0 1 0 1 3 4 3
17 16 15 14 12 9 13 10 7 8 8 7 7 5 6 7 10 12 13 12 8 8 7 4 5 10 12 12 8 9 8 6 4 3 2 3 3 3 4 3 4 4 4
17 18 16 15 14 12 12 10 7 9 8 8 7 7 7 7 7 14 15 15 8 5 4 7 9 12 12 9 10 10 9 5 5 4 5 5 5 5 3 3 3 3 5
19 15 16 16 14 12 10 10 10 10 9 8 8 10 10 7 8 8 9 8 10 8 8 4 6 8 10 9 8 8 5 6 8 6 5 5 2 3 4 4 4 3 3
18 16 12 13 15 14 13 12 12 13 15 13 13 12 10 10 13 16 13 11 11 12 6 3 3 2 2 3 4 5 5 5 5 4 4 4 4 4 4 4 4 3 5
17 14 13 9 10 12 12 11 14 12 19 19 19 14 12 18 9 18 20 19 12 15 4 5 6 6 7 8 8 7 4 8 7 6 5 6 5 5 4 3 3 4 5
17 15 12 10 9 11 11 12 13 13 9 16 14 9 12 5 7 8 10 7 7 10 5 5 7 6 8 8 8 7 9 10 8 8 8 6 5 5 5 2 2 4 6
17 16 12 10 10 9 11 12 11 12 12 14 5 3 3 9 12 10 12 9 1 8 7 8 6 7 8 8 7 8 8 5 6 7 6 6 7 6 5 4 3 6 6
14 11 10 8 8 11 11 11 10 8 4 4 4 1 4 7 8 14 19 6 6 6 9 7 7 6 6 5 6 6 6 6 6 5 6 8 8 7 6 6 7 10 6
13 15 10 6 4 4 5 6 5 6 5 4 3 4 5 3 3 2 2 2 6 8 6 5 3 5 5 5 5 5 5 5 6 7 8 9 7 5 5 6 6 10 6
6 6 11 8 7 7 6 5 4 5 4 4 1 2 5 3 5 1 1 2 2 1 3 5 4 4 4 5 4 5 5 6 7 8 7 7 7 7 5 5 5 4 3
9 8 8 9 8 9 8 7 6 7 5 6 6 1 2 4 5 4 3 1 3 4 4 4 4 5 5 5 5 5 5 6 5 6 7 6 7 6 5 6 5 4 4
9 11 11 10 11 11 8 7 6 8 8 9 0 0 3 5 4 4 3 2 2 2 3 3 2 3 3 3 3 4 5 5 6 5 6 6 7 7 6 5 5 4 4
5 8 7 7 8 10 11 7 7 12 9 5 4 2 6 5 5 5 4 2 3 3 3 2 2 4 3 3 3 3 3 3 2 5 8 7 7 6 5 4 7 7 6
9 6 3 7 11 13 13 11 10 8 7 6 6 7 7 7 6 5 5 5 5 6 6 5 4 5 5 7 7 6 5 1 2 4 4 4 3 3 1 1 4 4 2
10 11 8 8 11 12 13 12 10 9 9 9 8 8 7 7 5 5 5 6 5 5 6 5 7 10 9 7 6 4 2 2 4 7 4 3 1 3 3 5 7 2 4
Wind_Direction
148 138 126 122 114 107 103 99 82 76 74 69 81 79 75 66 59 79 76 80 81 79 67 84 85 124 129 125 129 133 142 123 118 67 145 23 55 91 74 63 64 77 96
163 146 137 132 123 110 107 119 124 92 74 94 90 86 77 76 72 78 78 75 88 81 73 80 66 85 77 91 95 97 140 149 122 119 53 41 69 49 88 68 31 76 119
149 140 136 133 126 128 123 122 122 116 107 87 83 88 98 96 89 78 90 85 80 85 87 94 102 100 89 88 118 92 83 81 116 126 104 50 63 28 68 52 41 54 82
149 143 143 155 156 148 133 125 124 126 110 97 90 96 96 98 97 96 96 88 78 68 66 75 83 97 122 123 95 110 109 100 94 113 94 116 107 30 77 97 41 27 48
151 148 161 163 152 142 133 125 116 109 112 113 111 99 103 107 117 112 107 112 112 100 83 85 90 119 127 121 118 112 120 100 119 109 100 92 54 48 126 187 126 338 318
155 161 160 151 147 146 143 132 115 113 113 110 106 114 102 95 119 113 116 113 105 113 115 88 73 79 76 77 84 102 142 142 139 132 142 154 194 179 160 152 130 111 224
159 160 157 152 151 150 135 124 123 130 119 116 117 121 130 138 141 126 124 129 135 142 142 139 116 95 102 101 77 73 72 65 99 155 160 183 169 190 154 138 157 154 195
165 166 160 158 158 150 139 140 133 134 142 144 151 150 142 161 168 150 140 141 144 163 168 178 165 170 175 146 122 104 85 81 138 176 174 172 171 162 166 167 166 155 57
173 173 169 164 159 156 159 160 159 147 155 169 168 168 164 182 177 168 157 162 174 200 203 200 189 191 205 176 150 145 105 21 19 37 65 106 135 155 155 116 114 92 347
179 180 171 168 167 173 172 171 167 158 167 160 173 191 193 191 197 182 166 163 185 204 222 219 207 201 194 179 165 165 170 208 148 97 69 87 130 123 109 87 138 115 120
181 180 176 175 176 178 173 165 162 159 155 179 190 204 209 206 210 200 190 182 196 196 208 216 218 206 187 186 173 176 195 162 187 172 176 187 50 34 120 133 160 142 154
183 183 182 180 183 175 177 178 168 160 173 188 191 215 226 225 222 219 210 212 178 195 215 204 203 195 196 187 177 183 175 154 150 172 187 221 222 229 230 216 228 232 220
182 189 185 187 188 179 178 181 170 179 185 196 197 212 225 218 223 218 212 213 213 198 202 207 196 199 191 185 191 188 179 180 180 181 208 219 205 212 184 214 209 266 287
187 177 187 187 192 186 188 188 186 188 197 201 205 216 221 213 213 206 212 203 203 205 181 164 187 182 191 191 176 200 194 186 191 196 204 213 189 192 211 180 172 175 241
193 193 172 191 192 193 195 190 196 210 197 198 211 213 208 222 225 209 195 196 203 211 139 137 177 144 187 212 225 215 200 186 194 187 183 203 221 203 189 150 167 168 210
189 194 198 176 186 196 201 210 229 225 211 214 214 198 218 232 188 188 197 207 194 144 176 185 209 206 207 206 212 219 206 209 211 196 191 203 209 188 166 171 165 176 213
188 190 196 190 186 194 200 207 218 235 218 224 241 251 247 1 257 231 224 199 189 149 232 215 238 219 227 226 212 206 215 215 209 211 215 206 168 155 160 154 190 215 233
192 181 190 198 194 191 201 204 208 217 221 229 67 257 96 104 77 86 105 112 119 245 230 220 199 218 218 207 206 211 220 205 205 216 209 174 169 159 165 176 216 240 217
191 191 188 182 186 194 198 204 215 221 219 152 148 115 133 81 121 151 154 145 222 226 237 240 221 206 201 205 213 216 218 217 211 198 190 180 178 175 184 180 204 246 198
190 187 185 188 151 153 148 155 157 163 170 174 150 133 145 143 134 60 225 188 205 222 222 242 202 196 199 202 205 206 209 206 209 200 199 193 185 175 169 175 228 234 205
139 128 128 112 109 108 101 87 83 81 53 47 104 21 310 167 119 346 18 29 15 320 222 222 213 209 207 218 211 211 207 212 207 204 193 183 164 183 191 194 243 254 209
113 108 101 101 94 93 93 88 99 97 84 86 55 69 46 69 83 83 79 255 248 236 230 215 222 220 216 208 213 218 210 211 203 193 187 176 177 188 182 204 226 219 211
106 111 109 111 112 115 100 105 110 90 80 63 217 206 75 78 81 79 71 6 303 282 252 233 227 262 247 239 215 201 195 206 204 186 182 182 187 189 187 198 209 197 195
299 107 121 139 157 133 112 127 90 82 114 157 212 118 87 74 62 54 51 18 7 26 38 32 346 297 317 307 288 278 305 315 223 206 189 187 197 194 183 188 224 238 210
102 34 66 147 116 106 101 92 95 102 105 101 78 63 70 75 68 52 44 42 39 37 29 27 21 9 13 7 5 6 3 327 175 139 133 132 153 171 160 208 239 209 138
110 122 115 101 98 104 103 105 101 98 92 88 87 84 80 80 75 69 59 56 54 47 39 26 24 32 30 23 24 26 16 127 146 139 138 130 228 256 232 227 215 184 166